Coldwater, MI

3:56 PM EDT on August 21, 2017 (GMT -0400)
Branch County Memorial

Weather History for KOEB - March, 2013

Change the Weather History Date:

Saturday, March 9, 2013

  Actual Average (KJYM) Record (KJYM)
Temperature  
Mean Temperature 32 °F -  
Max Temperature 42 °F 43 °F 72 °F (1987)
Min Temperature 22 °F 20 °F -8 °F (1978)
Degree Days  
Heating Degree Days 33    
Moisture  
Dew Point 26 °F    
Average Humidity 71    
Maximum Humidity 89    
Minimum Humidity 60    
Precipitation  
Precipitation 0.00 in - - ()
Sea Level Pressure  
Sea Level Pressure 30.20 in    
Wind  
Wind Speed 6 mph (SE)    
Max Wind Speed 13 mph    
Max Gust Speed 18 mph    
Visibility 10 miles    
Events Rain    
Averages and records for this station are not official NWS values.
T = Trace of Precipitation, MM = Missing Value Source: NWS Daily Summary

Daily Weather History Graph

Daily Weather History Graph

Search for Another Location

Airport or City:

Trip Planner

Search our weather history database for the weather conditions in past years. The results will help you decide how hot, cold, wet, or windy it might be!

Date:

Astronomy

Mar. 09, 2013 Rise Set
Actual Time 7:01 AM EST 6:40 PM EST
Civil Twilight 6:33 AM EST 7:08 PM EST
Nautical Twilight 6:01 AM EST 7:40 PM EST
Astronomical Twilight 5:29 AM EST 8:12 PM EST
Moon 5:26 AM EST (3/9) 4:40 PM EST (3/9)
Length of Visible Light 12h 34m
Length of Day
11h 38m
Waning Crescent, 5% of the Moon is Illuminated
Mar 9
Waning Crescent
Mar 11
New
Mar 19
First Quarter
Mar 27
Full
Apr 3
Last Quarter

Hourly Weather History & Observations

Time (EST) Temp. Windchill Dew Point Humidity Pressure Visibility Wind Dir Wind Speed Gust Speed Precip Events Conditions
12:14 AM 24.4 °F 20.1 °F 19.6 °F 82% 30.38 in 10.0 mi SSE 3.5 mph - N/A   Clear
12:34 AM 25.5 °F 21.3 °F 20.3 °F 81% 30.37 in 10.0 mi SSE 3.5 mph - N/A   Clear
12:54 AM 25.2 °F 20.9 °F 19.9 °F 81% 30.36 in 10.0 mi SSE 3.5 mph - N/A   Clear
1:14 AM 24.8 °F - 20.1 °F 82% 30.36 in 10.0 mi Calm Calm - N/A   Clear
1:34 AM 25.2 °F - 20.3 °F 82% 30.36 in 10.0 mi Calm Calm - N/A   Clear
1:54 AM 23.9 °F - 20.3 °F 86% 30.36 in 7.0 mi Calm Calm - N/A   Clear
2:14 AM 22.8 °F 18.2 °F 19.8 °F 88% 30.35 in 7.0 mi SE 3.5 mph - N/A   Clear
2:34 AM 22.1 °F 17.4 °F 19.4 °F 89% 30.34 in 7.0 mi SE 3.5 mph - N/A   Clear
2:54 AM 23.5 °F 19.1 °F 20.1 °F 87% 30.33 in 10.0 mi SE 3.5 mph - N/A   Clear
3:14 AM 22.5 °F 17.8 °F 19.6 °F 89% 30.32 in 10.0 mi SE 3.5 mph - N/A   Clear
3:34 AM 26.4 °F 22.4 °F 20.8 °F 79% 30.31 in 10.0 mi SSE 3.5 mph - N/A   Clear
3:54 AM 26.4 °F 22.4 °F 20.8 °F 79% 30.31 in 10.0 mi SSE 3.5 mph - N/A   Clear
4:14 AM 26.4 °F 22.4 °F 20.8 °F 79% 30.30 in 10.0 mi SE 3.5 mph - N/A   Clear
4:35 AM 26.6 °F 22.6 °F 21.0 °F 79% 30.31 in 10.0 mi SE 3.5 mph - N/A   Clear
4:54 AM 27.0 °F 21.6 °F 21.2 °F 79% 30.30 in 10.0 mi SE 4.6 mph - N/A   Clear
5:14 AM 27.5 °F 22.2 °F 22.1 °F 80% 30.30 in 10.0 mi SE 4.6 mph - N/A   Clear
5:34 AM 28.9 °F 21.9 °F 23.2 °F 79% 30.30 in 10.0 mi SE 6.9 mph - N/A   Clear
5:54 AM 29.3 °F 23.2 °F 23.0 °F 77% 30.30 in 10.0 mi SE 5.8 mph - N/A   Clear
6:15 AM 30.0 °F 25.2 °F 22.8 °F 75% 30.30 in 10.0 mi SE 4.6 mph - N/A   Clear
6:34 AM 30.0 °F 22.4 °F 22.5 °F 73% 30.28 in 10.0 mi SE 8.1 mph - N/A   Clear
6:54 AM 30.4 °F 22.9 °F 22.1 °F 71% 30.29 in 10.0 mi SE 8.1 mph - N/A   Clear
7:15 AM 30.6 °F 23.8 °F 22.1 °F 71% 30.29 in 10.0 mi SSE 6.9 mph - N/A   Clear
7:34 AM 30.6 °F 23.8 °F 22.1 °F 71% 30.29 in 10.0 mi SE 6.9 mph - N/A   Clear
7:54 AM 30.7 °F 24.9 °F 22.1 °F 70% 30.30 in 10.0 mi SSE 5.8 mph - N/A   Clear
8:15 AM 31.6 °F 25.1 °F 22.6 °F 69% 30.29 in 10.0 mi SE 6.9 mph - N/A   Clear
8:34 AM 32.4 °F 26.0 °F 23.0 °F 68% 30.30 in 10.0 mi SSE 6.9 mph - N/A   Clear
8:54 AM 32.9 °F 27.5 °F 23.7 °F 69% 30.31 in 10.0 mi SSE 5.8 mph - N/A   Clear
9:14 AM 33.6 °F 24.6 °F 23.9 °F 68% 30.30 in 10.0 mi SE 12.7 mph - N/A   Clear
9:34 AM 34.0 °F 28.0 °F 24.3 °F 68% 30.29 in 10.0 mi SE 6.9 mph - N/A   Clear
9:54 AM 34.7 °F 26.4 °F 24.8 °F 67% 30.28 in 10.0 mi SE 11.5 mph - N/A   Clear
10:14 AM 35.6 °F 28.6 °F 25.3 °F 66% 30.28 in 10.0 mi SE 9.2 mph - N/A   Clear
10:34 AM 36.1 °F 31.4 °F 25.5 °F 65% 30.28 in 10.0 mi South 5.8 mph - N/A   Clear
10:54 AM 36.5 °F 29.2 °F 26.1 °F 66% 30.29 in 10.0 mi South 10.4 mph - N/A   Clear
11:14 AM 36.9 °F 31.4 °F 26.6 °F 66% 30.28 in 10.0 mi South 6.9 mph - N/A   Scattered Clouds
11:34 AM 37.4 °F 32.1 °F 26.6 °F 65% 30.28 in 10.0 mi SSE 6.9 mph - N/A   Scattered Clouds
11:55 AM 37.4 °F 32.8 °F 27.1 °F 66% 30.28 in 10.0 mi SSE 5.8 mph - N/A   Scattered Clouds
12:14 PM 37.8 °F 33.3 °F 27.3 °F 66% 30.26 in 10.0 mi SE 5.8 mph - N/A   Scattered Clouds
12:34 PM 38.1 °F 31.7 °F 27.3 °F 65% 30.25 in 10.0 mi SE 9.2 mph - N/A   Mostly Cloudy
12:55 PM 38.5 °F 32.7 °F 27.1 °F 64% 30.21 in 10.0 mi SSE 8.1 mph - N/A   Overcast
1:14 PM 39.2 °F 33.6 °F 27.3 °F 62% 30.21 in 10.0 mi SE 8.1 mph - N/A   Scattered Clouds
1:34 PM 39.4 °F 34.5 °F 27.9 °F 63% 30.19 in 10.0 mi SSE 6.9 mph - N/A   Scattered Clouds
1:55 PM 39.9 °F 33.4 °F 27.7 °F 62% 30.17 in 10.0 mi SE 10.4 mph - N/A   Clear
2:14 PM 40.1 °F 32.7 °F 27.9 °F 62% 30.16 in 10.0 mi SE 12.7 mph - N/A   Clear
2:34 PM 40.5 °F 33.2 °F 27.5 °F 60% 30.14 in 10.0 mi SE 12.7 mph 18.4 mph N/A   Clear
2:54 PM 40.3 °F 34.4 °F 27.5 °F 60% 30.13 in 10.0 mi SSE 9.2 mph - N/A   Clear
3:14 PM 41.0 °F 35.2 °F 28.2 °F 60% 30.13 in 10.0 mi SSE 9.2 mph - N/A   Scattered Clouds
3:34 PM 40.8 °F 34.5 °F 28.2 °F 61% 30.13 in 10.0 mi SSE 10.4 mph 16.1 mph N/A   Scattered Clouds
3:54 PM 40.6 °F 35.4 °F 28.8 °F 63% 30.12 in 10.0 mi SSE 8.1 mph 16.1 mph N/A   Clear
4:14 PM 41.0 °F 34.3 °F 29.1 °F 63% 30.11 in 10.0 mi SE 11.5 mph - N/A   Clear
4:34 PM 41.0 °F 33.9 °F 29.3 °F 63% 30.09 in 10.0 mi SE 12.7 mph - N/A   Scattered Clouds
4:54 PM 41.2 °F 35.0 °F 29.7 °F 64% 30.08 in 10.0 mi SE 10.4 mph 16.1 mph N/A   Mostly Cloudy
5:14 PM 40.6 °F 33.8 °F 30.0 °F 66% 30.07 in 10.0 mi SE 11.5 mph - N/A   Overcast
5:34 PM 40.6 °F 34.8 °F 30.7 °F 68% 30.06 in 10.0 mi SE 9.2 mph - N/A   Overcast
5:54 PM 40.5 °F 35.1 °F 30.9 °F 69% 30.05 in 10.0 mi SE 8.1 mph - N/A   Overcast
6:14 PM 40.6 °F 34.8 °F 30.7 °F 68% 30.06 in 10.0 mi SSE 9.2 mph - N/A Rain Light Rain
6:35 PM 40.3 °F 34.4 °F 31.1 °F 70% 30.04 in 10.0 mi SE 9.2 mph - N/A Rain Light Rain
7:14 PM 40.3 °F 34.4 °F 31.1 °F 70% 30.05 in 10.0 mi SSE 9.2 mph - N/A   Scattered Clouds
7:35 PM 40.1 °F 34.7 °F 31.8 °F 72% 30.05 in 10.0 mi SSE 8.1 mph - N/A   Mostly Cloudy
7:54 PM 40.8 °F 35.0 °F 32.0 °F 71% 30.04 in 10.0 mi SE 9.2 mph - N/A   Overcast
8:14 PM 41.0 °F 36.4 °F 32.0 °F 70% 30.04 in 10.0 mi SE 6.9 mph - N/A   Overcast
8:35 PM 40.6 °F 36.0 °F 32.0 °F 71% 30.03 in 10.0 mi SSE 6.9 mph - N/A   Overcast
8:54 PM 40.6 °F 35.4 °F 32.0 °F 71% 30.03 in 10.0 mi SSE 8.1 mph - N/A   Overcast
9:14 PM 40.6 °F 35.4 °F 32.0 °F 71% 30.02 in 10.0 mi SSE 8.1 mph - N/A   Overcast
9:34 PM 41.2 °F 36.0 °F 32.2 °F 70% 30.01 in 10.0 mi SE 8.1 mph - N/A   Mostly Cloudy
9:54 PM 41.2 °F 36.6 °F 32.2 °F 70% 30.01 in 10.0 mi SE 6.9 mph - N/A   Mostly Cloudy
10:14 PM 41.2 °F 35.5 °F 32.2 °F 70% 30.00 in 10.0 mi SE 9.2 mph - N/A   Scattered Clouds
10:34 PM 41.9 °F 36.9 °F 32.2 °F 68% 30.00 in 10.0 mi SSE 8.1 mph - N/A   Clear
10:54 PM 41.5 °F 35.9 °F 32.0 °F 69% 29.99 in 10.0 mi SSE 9.2 mph - N/A   Clear
11:14 PM 41.7 °F 36.1 °F 32.0 °F 68% 29.99 in 10.0 mi SSE 9.2 mph - N/A   Clear
11:34 PM 42.1 °F 36.1 °F 32.0 °F 67% 29.98 in 10.0 mi SE 10.4 mph 17.3 mph N/A   Clear
11:54 PM 42.4 °F 36.5 °F 32.0 °F 67% 29.97 in 10.0 mi SE 10.4 mph 16.1 mph N/A   Clear